Location: El Castaño
(10.3135°N, 67.5574°W)
Time: 03:35:12
(UTC+00:00)

Ariane H10 - Pass Details

Date: 13 June 2024
Orbit: 423 x 34536 km, 4.1° (Epoch: 19 July)

Event Time Altitude Azimuth Distance (km) Brightness Sun altitude
Rises 23:26:53 0° 266° (W) 7,289 9.2 -8.6°
Reaches altitude 10° 23:34:19 10° 260° (W) 3,902 7.5 -10.2°
Maximum altitude 23:40:58 35° 194° (SSW) 1,050 3.6 -11.7°
Enters shadow 23:42:56 17° 134° (SE) 1,287 3.6 -12.1°
